Torna al catalogo

ATLAS 5 CENTAUR R/B

AttivoVLEO
NORAD 37937·ROCKET BODY·🇺🇸 United States

Lanciato Nov 26, 2011 da Cape Canaveral Space Force Station

Loading…

Prossimi Passaggi (prossime 24 ore)

TLE

ObsoletoSource: Space-Track

Epoca: Nov 26, 2011, 15:32 UTC

1 37937U 11070B   11330.64727546 +.00002129 -67248-5 +00000-0 0  9994
2 37937 028.9400 110.9743 0076526 212.2200 357.6640 16.12595291000006

Traccia ATLAS 5 CENTAUR R/B in tempo reale con AllMySat

Download on the App Store